Moses Lake, WA

12:16 PM PST on January 24, 2017 (GMT -0800)
Grant County International

Weather History for KMWH - October, 2013

Change the Weather History Date:

Saturday, October 12, 2013

  Actual Average Record
Temperature  
Mean Temperature 45 °F 51 °F  
Max Temperature 53 °F 65 °F 75 °F (1979)
Min Temperature 37 °F 37 °F 26 °F (1986)
Degree Days  
Heating Degree Days 20 14  
Month to date heating degree days 175 141  
Since 1 July heating degree days 277 291  
Cooling Degree Days 0 0  
Month to date cooling degree days 0 0  
Year to date cooling degree days 948 614  
Moisture  
Dew Point 40 °F    
Average Humidity 76    
Maximum Humidity 86    
Minimum Humidity 65    
Precipitation  
Precipitation 0.01 in 0.02 in 0.15 in (1980)
Month to date precipitation 0.01 0.20  
Year to date precipitation 5.25 6.02  
Sea Level Pressure  
Sea Level Pressure 30.10 in    
Wind  
Wind Speed 3 mph (North)    
Max Wind Speed 9 mph    
Max Gust Speed 10 mph    
Visibility 10 miles    
Events      
T = Trace of Precipitation, MM = Missing Value Source: NWS Daily Summary

Daily Weather History Graph

Daily Weather History Graph

Search for Another Location

Airport or City:

Trip Planner

Search our weather history database for the weather conditions in past years. The results will help you decide how hot, cold, wet, or windy it might be!

Date:

Astronomy

Oct. 12, 2013 Rise Set
Actual Time 7:11 AM PDT 6:14 PM PDT
Civil Twilight 6:41 AM PDT 6:45 PM PDT
Nautical Twilight 6:05 AM PDT 7:20 PM PDT
Astronomical Twilight 5:30 AM PDT 7:56 PM PDT
Moon 2:50 PM PDT (10/12) No Moon Set
Length of Visible Light 12h 04m
Length of Day
11h 02m
First Quarter, 60% of the Moon is Illuminated
Oct 12
First Quarter
Oct 18
Full
Oct 26
Last Quarter
Nov 3
New
Nov 9
First Quarter

Hourly Weather History & Observations

Time (PDT) Temp. Windchill Dew Point Humidity Pressure Visibility Wind Dir Wind Speed Gust Speed Precip Events Conditions
12:52 AM 45.0 °F - 34.0 °F 65% 30.03 in 10.0 mi Calm Calm - N/A   Overcast
1:52 AM 45.0 °F 42.6 °F 35.1 °F 68% 30.03 in 10.0 mi North 4.6 mph - N/A   Overcast
2:52 AM 45.0 °F 42.6 °F 33.1 °F 63% 30.02 in 10.0 mi NNE 4.6 mph - N/A   Scattered Clouds
3:52 AM 43.0 °F 41.3 °F 32.0 °F 65% 30.02 in 10.0 mi North 3.5 mph - N/A   Mostly Cloudy
4:52 AM 44.1 °F 41.5 °F 34.0 °F 68% 30.02 in 10.0 mi North 4.6 mph - N/A   Overcast
5:52 AM 43.0 °F 40.3 °F 34.0 °F 71% 30.03 in 10.0 mi North 4.6 mph - N/A   Overcast
6:52 AM 45.0 °F 41.2 °F 34.0 °F 65% 30.03 in 10.0 mi North 6.9 mph - N/A   Overcast
7:52 AM 45.0 °F 43.5 °F 37.0 °F 74% 30.05 in 10.0 mi NNE 3.5 mph - 0.00 in   Overcast
8:52 AM 46.9 °F - 39.9 °F 77% 30.06 in 10.0 mi NE 6.9 mph - N/A   Overcast
9:52 AM 48.0 °F - 43.0 °F 83% 30.08 in 10.0 mi NE 5.8 mph - N/A   Overcast
10:52 AM 48.0 °F - 43.0 °F 83% 30.09 in 10.0 mi ENE 5.8 mph - 0.00 in   Overcast
11:52 AM 48.9 °F - 44.1 °F 83% 30.10 in 10.0 mi ESE 4.6 mph - 0.00 in   Overcast
12:52 PM 50.0 °F - 45.0 °F 83% 30.10 in 10.0 mi Calm Calm - N/A   Overcast
1:52 PM 50.0 °F - 45.0 °F 83% 30.10 in 10.0 mi Calm Calm - 0.01 in   Overcast
2:52 PM 51.1 °F - 45.0 °F 80% 30.09 in 10.0 mi WSW 3.5 mph - N/A   Overcast
3:52 PM 52.0 °F - 44.1 °F 74% 30.10 in 10.0 mi West 4.6 mph - N/A   Overcast
4:52 PM 52.0 °F - 43.0 °F 71% 30.11 in 10.0 mi Calm Calm - N/A   Overcast
5:52 PM 52.0 °F - 44.1 °F 74% 30.11 in 10.0 mi SW 4.6 mph - N/A   Mostly Cloudy
6:52 PM 50.0 °F - 43.0 °F 77% 30.12 in 10.0 mi Calm Calm - N/A   Scattered Clouds
7:52 PM 48.0 °F - 41.0 °F 77% 30.28 in 10.0 mi Calm Calm - N/A   Overcast
8:52 PM 46.9 °F - 43.0 °F 86% 30.28 in 10.0 mi Calm Calm - N/A   Overcast
9:52 PM 46.9 °F - 43.0 °F 86% 30.14 in 10.0 mi Calm Calm - N/A   Overcast
10:52 PM 41.0 °F - 37.9 °F 89% 30.17 in 10.0 mi Calm Calm - N/A   Mostly Cloudy
11:52 PM 39.0 °F 34.8 °F 36.0 °F 89% 30.17 in 10.0 mi NNW 5.8 mph - N/A   Clear